Torna al catalogo

STARLINK-36091

AttivoComunicazioniVLEO
NORAD 66848·PAYLOAD·🇺🇸 United States

Lanciato Dec 2, 2025 da Cape Canaveral Space Force Station

Loading…

Prossimi Passaggi (prossime 24 ore)

TLE

AggiornatoSource: CelesTrak SupGP

Epoca: Sep 14, 2026, 22:33 UTC

1 66848C 25281A   26257.94006944 -.00012569  00000+0 -45529-3 0  2577
2 66848  43.0038 355.0299 0001481 272.2888 137.1462 15.27580457    15

Traccia STARLINK-36091 in tempo reale con AllMySat

Download on the App Store